Weather reports worldwide

Advertisment
Hawarden, United Kingdom (3321): temperature & dewpoint: 11.07.2019 06:00:00 - 17.07.2019 06:00:00 (BST)Hawarden, United Kingdom (3321): temperature -20cm & temperature -100cm: 11.07.2019 06:00:00 - 17.07.2019 06:00:00 (BST)Hawarden, United Kingdom (3321): wind speed: 11.07.2019 06:00:00 - 17.07.2019 06:00:00 (BST)Hawarden, United Kingdom (3321): wind direction: 11.07.2019 06:00:00 - 17.07.2019 06:00:00 (BST)Hawarden, United Kingdom (3321): reduced air pressure: 11.07.2019 06:00:00 - 17.07.2019 06:00:00 (BST)Hawarden, United Kingdom (3321): visibility: 11.07.2019 06:00:00 - 17.07.2019 06:00:00 (BST)Hawarden, United Kingdom (3321): sunshine duration: 11.07.2019 06:00:00 - 17.07.2019 06:00:00 (BST)Hawarden, United Kingdom (3321): precipitation: 11.07.2019 06:00:00 - 17.07.2019 06:00:00 (BST)
Date & Time tt [°C] td [°C] tt -20cm [°C] tt -100cm [°C] ff [km/h] ff [kn] dd ppp [hPa] vv [km] sd [min] rr [mm]
17.07.2019 06:00:00 12,0 11,3 - - 5 3 SSE 1015,1 13 0 0,0
17.07.2019 05:00:00 12,1 11,2 - - 8 4 S 1015,5 11 0 0,0
17.07.2019 04:00:00 12,8 11,5 - - 8 4 SSE 1015,8 17 0 0,0
17.07.2019 03:00:00 12,8 11,5 - - 2 1 SE 1016,4 23 0 0,0
17.07.2019 02:00:00 13,5 11,2 - - 5 3 SSE 1016,9 22 0 0,0
17.07.2019 01:00:00 13,1 11,3 - - 5 3 SSW 1017,1 23 - 0,0
17.07.2019 00:00:00 14,2 12,3 - - 8 4 W 1017,4 35 0 0,0
16.07.2019 23:00:00 14,8 12,3 - - 4 2 W 1017,7 40 0 0,0
16.07.2019 22:00:00 18,4 12,8 - - 5 3 NNW 1017,7 45 0 0,0
16.07.2019 21:00:00 19,4 13,0 - - 9 5 NW 1017,7 40 0 0,0
16.07.2019 20:00:00 20,4 12,4 - - 15 8 NW 1017,7 10 60 0,0
16.07.2019 19:00:00 21,7 12,0 - - 13 7 NNW 1017,7 10 30 0,0
16.07.2019 18:00:00 21,1 12,3 - - 11 6 NW 1017,9 30 24 0,0
16.07.2019 17:00:00 22,0 12,1 - - 11 6 N 1018,2 10 12 0,0
16.07.2019 16:00:00 20,8 13,3 - - 13 7 NW 1018,6 10 0 0,0
16.07.2019 15:00:00 20,6 11,8 - - 18 10 NW 1018,8 10 0 0,0
16.07.2019 14:00:00 21,7 12,0 - - 4 2 NW 1018,8 45 0 0,0
16.07.2019 13:00:00 21,8 12,5 - - 4 2 - 1019,1 10 12 0,0
16.07.2019 12:00:00 21,7 13,3 - - 8 4 - 1019,4 10 54 0,0
16.07.2019 11:00:00 21,0 13,6 - - 4 2 - 1019,8 10 60 0,0
16.07.2019 10:00:00 18,6 13,4 18,0 15,5 4 2 - 1020,0 10 6 -
16.07.2019 09:00:00 16,8 14,4 - - 2 1 SW 1020,3 28 0 0,2
16.07.2019 08:00:00 17,0 13,8 - - 2 1 - 1020,2 10 0 0,0
16.07.2019 07:00:00 17,0 14,0 - - 4 2 N 1020,0 29 0 0,0
16.07.2019 06:00:00 17,1 14,2 - - 4 2 NNW 1019,9 23 0 0,0
16.07.2019 05:00:00 16,8 14,0 - - 2 1 WNW 1019,8 24 0 0,0
16.07.2019 04:00:00 17,3 13,9 - - 4 2 NNW 1019,8 30 0 0,0
16.07.2019 03:00:00 17,1 13,9 - - 4 2 W 1020,1 30 0 0,0
16.07.2019 02:00:00 17,6 14,4 - - 4 2 WSW 1020,4 26 0 0,0
16.07.2019 01:00:00 17,6 14,7 - - 4 2 W 1020,6 25 - 0,0
16.07.2019 00:00:00 18,6 14,8 - - 4 2 NW 1020,7 16 0 0,0
15.07.2019 23:00:00 18,8 13,8 - - 4 2 WNW 1020,9 30 0 0,0
15.07.2019 22:00:00 19,0 13,5 - - 5 3 NNW 1020,9 35 0 0,0
15.07.2019 21:00:00 20,2 13,4 - - 9 5 NNW 1020,7 35 0 0,0
15.07.2019 20:00:00 21,3 13,0 - - 13 7 NW 1020,7 45 30 0,0
15.07.2019 19:00:00 22,1 13,0 - - 13 7 NW 1020,6 45 42 0,0
15.07.2019 18:00:00 23,1 12,7 - - 5 3 NE 1020,6 30 54 0,0
15.07.2019 17:00:00 23,1 12,8 - - 5 3 - 1021,0 10 24 0,0
15.07.2019 16:00:00 21,8 13,2 - - 8 4 NW 1021,5 26 0 0,0
15.07.2019 15:00:00 22,9 12,7 - - 5 3 WSW 1021,5 25 36 0,0
15.07.2019 14:00:00 22,1 14,0 - - 9 5 SSE 1021,9 35 6 0,0
15.07.2019 13:00:00 21,8 13,7 - - 5 3 - 1022,3 10 36 0,0
15.07.2019 12:00:00 21,5 14,0 - - 13 7 SSE 1022,4 10 60 0,0
15.07.2019 11:00:00 20,1 13,6 - - 16 9 SSE 1022,7 10 60 0,0
15.07.2019 10:00:00 18,8 13,7 17,4 15,5 16 9 SSE 1022,9 10 54 0,0
15.07.2019 09:00:00 16,9 13,3 - - 21 11 SSE 1023,2 10 60 0,0
15.07.2019 08:00:00 14,6 12,7 - - 18 10 SSE 1023,3 10 60 0,0
15.07.2019 07:00:00 13,2 11,8 - - 11 6 SSE 1023,3 10 30 0,0
15.07.2019 06:00:00 12,1 11,2 - - 11 6 SE 1023,5 14 0 0,0
15.07.2019 05:00:00 11,3 10,4 - - 8 4 SE 1023,6 11 0 0,0
15.07.2019 04:00:00 12,1 10,7 - - 9 5 SE 1023,7 15 0 0,0
15.07.2019 03:00:00 13,4 11,5 - - 13 7 SSE 1024,0 20 0 0,0
15.07.2019 02:00:00 13,1 11,7 - - 9 5 SSE 1024,1 15 0 0,0
15.07.2019 01:00:00 13,4 11,7 - - 9 5 S 1024,1 16 - 0,0
15.07.2019 00:00:00 13,6 12,1 - - 5 3 SSW 1024,0 21 0 0,0
14.07.2019 23:00:00 16,2 13,5 - - 4 2 SW 1023,8 23 0 0,0
14.07.2019 22:00:00 18,0 13,2 - - 5 3 SE 1023,8 30 0 0,0
14.07.2019 21:00:00 19,3 12,9 - - 9 5 ESE 1023,7 40 0 0,0
14.07.2019 20:00:00 20,2 12,5 - - 9 5 E 1023,6 40 30 0,0
14.07.2019 19:00:00 20,8 13,4 - - 9 5 NE 1023,8 27 6 0,0
14.07.2019 18:00:00 20,2 13,7 - - 11 6 NE 1023,9 45 0 0,0
14.07.2019 17:00:00 21,9 11,8 - - 11 6 ENE 1024,1 10 54 0,0
14.07.2019 16:00:00 21,2 12,5 - - 5 3 - 1024,4 10 54 0,0
14.07.2019 15:00:00 19,6 13,6 - - 8 4 S 1024,7 10 24 0,0
14.07.2019 14:00:00 19,1 13,8 - - 8 4 ESE 1024,9 10 30 0,0
14.07.2019 13:00:00 18,0 13,5 - - 9 5 ESE 1025,1 10 0 0,0
14.07.2019 12:00:00 17,5 13,2 - - 9 5 SE 1025,1 10 0 0,0
14.07.2019 11:00:00 17,0 13,2 - - 4 2 SE 1025,0 22 0 0,0
14.07.2019 10:00:00 16,2 13,1 17,2 15,5 4 2 - 1024,9 10 0 0,0
14.07.2019 09:00:00 15,5 12,4 - - 4 2 - 1024,7 10 0 0,0
14.07.2019 08:00:00 15,4 12,4 - - 5 3 WNW 1024,5 30 0 0,0
14.07.2019 07:00:00 15,0 12,2 - - 4 2 WNW 1024,3 30 0 0,0
14.07.2019 06:00:00 14,4 11,9 - - 8 4 W 1024,0 30 0 0,0
14.07.2019 05:00:00 14,2 11,7 - - 8 4 W 1024,1 28 0 0,0
14.07.2019 04:00:00 14,1 11,5 - - 9 5 W 1024,1 30 0 0,0
14.07.2019 03:00:00 14,3 11,6 - - 9 5 W 1024,4 35 0 0,0
14.07.2019 02:00:00 14,3 11,6 - - 9 5 WNW 1024,7 27 0 0,0
14.07.2019 01:00:00 14,4 11,8 - - 11 6 W 1024,6 30 - 0,0
14.07.2019 00:00:00 14,7 12,1 - - 5 3 WNW 1024,7 30 0 0,0
13.07.2019 23:00:00 14,4 11,9 - - 11 6 W 1024,9 25 0 0,0
13.07.2019 22:00:00 14,3 11,1 - - 9 5 NW 1024,9 35 0 0,0
13.07.2019 21:00:00 15,9 10,9 - - 11 6 WNW 1024,7 35 60 0,0
13.07.2019 20:00:00 16,7 11,0 - - 16 9 WNW 1024,5 30 48 0,0
13.07.2019 19:00:00 17,3 12,3 - - 16 9 NW 1024,5 30 18 0,0
13.07.2019 18:00:00 17,5 13,0 - - 18 10 NNW 1024,4 10 18 0,0
13.07.2019 17:00:00 17,6 13,5 - - 16 9 WNW 1024,5 19 6 0,0
13.07.2019 16:00:00 17,4 13,2 - - 21 11 NW 1024,5 10 0 0,0
13.07.2019 15:00:00 17,5 13,1 - - 22 12 NW 1024,3 10 24 0,0
13.07.2019 14:00:00 17,6 13,5 - - 22 12 NW 1024,3 10 12 0,0
13.07.2019 13:00:00 16,7 13,1 - - 21 11 NW 1024,4 10 0 0,0
13.07.2019 12:00:00 16,5 13,1 - - 22 12 NW 1024,3 10 0 0,0
13.07.2019 11:00:00 16,0 13,0 - - 22 12 NW 1024,0 10 0 0,0
13.07.2019 10:00:00 16,0 12,6 17,4 15,4 26 14 NW 1023,7 10 0 0,0
13.07.2019 09:00:00 16,0 12,6 - - 18 10 NW 1023,4 10 0 0,0
13.07.2019 08:00:00 15,4 12,5 - - 15 8 NW 1023,0 35 0 0,0
13.07.2019 07:00:00 14,9 12,5 - - 15 8 NW 1022,7 30 0 0,0
13.07.2019 06:00:00 14,7 12,4 - - 13 7 NW 1022,5 9 0 0,0
13.07.2019 05:00:00 15,1 12,4 - - 15 8 WNW 1022,1 40 0 0,0
13.07.2019 04:00:00 15,3 12,4 - - 13 7 NW 1022,0 45 0 0,0
13.07.2019 03:00:00 15,4 12,7 - - 13 7 NW 1022,0 40 0 0,0
13.07.2019 02:00:00 15,4 12,7 - - 15 8 NW 1022,0 45 0 0,0
13.07.2019 01:00:00 15,7 12,7 - - 15 8 NW 1021,9 45 - 0,0
13.07.2019 00:00:00 15,7 12,5 - - 9 5 NW 1021,5 40 0 0,0
12.07.2019 23:00:00 16,2 12,7 - - 11 6 NW 1021,2 45 0 0,0
12.07.2019 22:00:00 16,3 13,3 - - 13 7 NW 1020,8 50 0 0,0
12.07.2019 21:00:00 16,9 13,4 - - 11 6 WNW 1020,4 50 0 0,0
12.07.2019 20:00:00 17,6 13,0 - - 18 10 WNW 1020,1 45 0 0,0
12.07.2019 19:00:00 18,1 12,7 - - 21 11 WNW 1019,7 40 18 0,0
12.07.2019 18:00:00 18,8 13,1 - - 24 13 NW 1018,9 10 24 0,0
12.07.2019 17:00:00 18,9 12,6 - - 29 16 NW 1018,6 10 36 0,0
12.07.2019 16:00:00 18,2 13,3 - - 18 10 NW 1018,6 50 12 0,0
12.07.2019 15:00:00 18,3 13,4 - - 22 12 NW 1018,2 40 12 0,0
12.07.2019 14:00:00 17,5 14,1 - - 21 11 NW 1017,8 29 0 0,0
12.07.2019 13:00:00 16,4 13,9 - - 22 12 NW 1017,5 30 0 0,2
12.07.2019 12:00:00 16,3 14,5 - - 18 10 NW 1016,9 9 0 0,0
12.07.2019 11:00:00 16,5 13,9 - - 16 9 WNW 1016,4 45 0 0,0
12.07.2019 10:00:00 16,7 13,7 17,7 15,2 21 11 NW 1015,7 10 0 0,0
12.07.2019 09:00:00 16,5 14,2 - - 13 7 NW 1015,2 10 0 0,0
12.07.2019 08:00:00 15,7 14,3 - - 11 6 WNW 1014,8 11 0 0,0
12.07.2019 07:00:00 16,0 13,9 - - 9 5 WNW 1014,3 10 0 0,0
12.07.2019 06:00:00 15,7 14,0 - - 9 5 WNW 1013,8 10 0 0,0
12.07.2019 05:00:00 15,4 13,8 - - 11 6 W 1013,1 21 0 0,0
12.07.2019 04:00:00 15,7 14,0 - - 13 7 W 1012,8 35 0 0,0
12.07.2019 03:00:00 14,1 13,9 - - 8 4 WNW 1012,5 30 0 0,0
12.07.2019 02:00:00 13,3 13,1 - - 5 3 SW 1012,5 7 0 0,2
12.07.2019 01:00:00 14,0 13,8 - - 5 3 SW 1012,4 2,4 - 0,0
12.07.2019 00:00:00 15,2 14,9 - - 5 3 S 1012,5 1,5 0 0,0
11.07.2019 23:00:00 15,8 15,3 - - 5 3 SSW 1012,3 7 0 0,0
11.07.2019 22:00:00 16,1 15,4 - - 4 2 SW 1012,2 7 0 0,8
11.07.2019 21:00:00 16,4 15,9 - - 8 4 NW 1011,9 3,0 0 4,4
11.07.2019 20:00:00 16,6 15,0 - - 16 9 NNW 1011,9 9 0 0,0
11.07.2019 19:00:00 18,5 15,1 - - 15 8 NNW 1011,7 40 12 0,0
11.07.2019 18:00:00 21,5 15,2 - - 16 9 W 1011,5 10 54 0,0
11.07.2019 17:00:00 21,9 15,4 - - 26 14 WSW 1011,3 10 24 0,0
11.07.2019 16:00:00 23,0 15,7 - - 24 13 WSW 1011,3 10 42 0,0
11.07.2019 15:00:00 21,6 15,5 - - 26 14 WSW 1011,3 10 6 0,0
11.07.2019 14:00:00 21,6 14,9 - - 24 13 WSW 1011,6 10 24 0,0
11.07.2019 13:00:00 20,3 15,5 - - 11 6 NNE 1011,7 10 - 0,0
11.07.2019 12:00:00 19,9 14,9 - - 8 4 NNW 1011,8 10 12 0,0
11.07.2019 11:00:00 20,4 14,6 - - 22 12 WSW 1011,7 10 0 0,0
11.07.2019 10:00:00 19,5 14,8 17,7 15,2 13 7 SW 1011,7 10 0 0,0
11.07.2019 09:00:00 18,2 14,5 - - 9 5 SE 1011,7 10 0 0,0
11.07.2019 08:00:00 17,2 14,0 - - 9 5 SW 1011,9 10 0 0,0
11.07.2019 07:00:00 16,6 13,8 - - 11 6 SSW 1011,9 10 0 0,0
11.07.2019 06:00:00 16,5 13,9 - - 11 6 SW 1012,0 50 0 0,0

tt = temperature
td = dewpoint
tt -20cm = temperature -20cm
tt -100cm = temperature -100cm
ff = wind speed
dd = wind direction
ppp = reduced air pressure
vv = visibility
sd = sunshine duration
rr = precipitation

Next stations